Погода в Абенгуру

Кот-д’Ивуар     6°43′29″N   3°29′40″W
темп.,
°C
ветер,
м/с
пор.,
м/с
влажн.,
%
обл.,
%
осадки,
мм/ч
давл.,
гПа
погр.,
м
25 июля, вс
вс2500:00+20ююз159497 0.1 1015150
03:00+19ююз159548 0.0 1014137
06:00+19ююз119970 0.0 101535
09:00+25юз2472100 0.0 1016677
12:00+29зюз235489 0.0 10141499
15:00+27ююз2568100 0.1 1013653
18:00+25ююз268191 0.1 1013248
21:00+22ююз288990 0.1 1015368
26 июля, пн
пн2600:00+22ююз298986 0.1 1015415
03:00+20ююз139919 0.0 101383
06:00+19ююз1199100 0.0 101527
09:00+24юз247572 0.0 1016870
12:00+26юз2368100 0.1 10151087
15:00+27ююз236597 0.0 10131101
18:00+24ю2582100 0.1 1013211
21:00+23ю2882100 0.1 1015558
27 июля, вт
вт2700:00+22ююз2984100 0.1 1015575
03:00+22ююз1886100 0.0 1014551
06:00+21ююз1789100 0.0 1015490
09:00+23юз2781100 0.0 1017620
12:00+26ююз246289 0.0 10161149
15:00+28юз2356100 0.0 10131665
18:00+25ююз2774100 0.1 1013270
21:00+22ююз1881100 0.0 1015244
28 июля, ср
ср2800:00+20ююз179333 0.0 1016196
03:00+19юз1698100 0.0 1014172
06:00+19ююз1699100 0.0 1015210
09:00+24юз2575100 0.0 1016701
12:00+28юз2455100 0.0 10151574
15:00+30юз244277 0.0 10122130
18:00+25юз12667 0.0 101226
21:00+22ю18787 0.0 1015203
29 июля, чт
чт2900:00+20юз159066 0.0 1015125
03:00+19юз1197100 0.0 101431
06:00+19юз119999 0.0 101519
09:00+25ююз237197 0.0 1016736
12:00+30юз234784 0.0 10141703
15:00+32з123981 0.0 10122322
18:00+26ююз276997 0.0 1012248
21:00+23ююз2883100 0.0 1014347